UAL1689 KIAD-KLAX

Flight info

Callsign UAL1689
Flight time 5h 40m
Altitude 32000
Route RNLDI4 OTTTO Q176 KENTO/N0452F340 Q176 CIM J96 DRK J231 HIPPI GABBL HLYWD1
Aircraft B739/M-SDE2E3FGHIRWXY/LB1

Departure

Time 2026-04-24 13:14
Airport Washington Dulles International Airport (KIAD)

Arrival

Time 2026-04-24 18:54
Airport Los Angeles International Airport (KLAX)
Time Latitude Longitude Altitude Speed Heading
2026-04-24 12:51 38.94592 -77.45011 291 ft 0 kts 177°
2026-04-24 13:04 38.94593 -77.45011 291 ft 1 kts 177°
2026-04-24 13:04 38.94615 -77.45018 298 ft 4 kts 142°
2026-04-24 13:04 38.94635 -77.45032 296 ft 4 kts 178°
2026-04-24 13:05 38.94656 -77.45027 297 ft 4 kts 243°
2026-04-24 13:05 38.94660 -77.45003 293 ft 4 kts 271°
2026-04-24 13:05 38.94659 -77.44980 291 ft 0 kts 271°
2026-04-24 13:08 38.94660 -77.44992 291 ft 5 kts 275°
2026-04-24 13:08 38.94664 -77.45087 291 ft 15 kts 271°
2026-04-24 13:08 38.94665 -77.45224 291 ft 15 kts 270°
2026-04-24 13:09 38.94667 -77.45483 295 ft 14 kts 270°
2026-04-24 13:09 38.94661 -77.45594 293 ft 9 kts 226°
2026-04-24 13:09 38.94601 -77.45609 293 ft 9 kts 181°
2026-04-24 13:09 38.94540 -77.45610 293 ft 10 kts 181°
2026-04-24 13:10 38.94455 -77.45612 294 ft 12 kts 180°
2026-04-24 13:10 38.94371 -77.45613 294 ft 12 kts 181°
2026-04-24 13:10 38.94271 -77.45613 294 ft 17 kts 180°
2026-04-24 13:10 38.94154 -77.45614 294 ft 17 kts 180°
2026-04-24 13:11 38.94041 -77.45618 293 ft 16 kts 182°
2026-04-24 13:11 38.93932 -77.45621 294 ft 15 kts 178°
2026-04-24 13:11 38.93828 -77.45617 294 ft 15 kts 181°
2026-04-24 13:11 38.93728 -77.45621 293 ft 14 kts 186°
2026-04-24 13:12 38.93637 -77.45660 295 ft 13 kts 201°
2026-04-24 13:12 38.93552 -77.45702 294 ft 13 kts 201°
2026-04-24 13:12 38.93469 -77.45742 294 ft 13 kts 201°
2026-04-24 13:12 38.93433 -77.45825 295 ft 12 kts 285°
2026-04-24 13:13 38.93474 -77.45968 294 ft 35 kts 290°
2026-04-24 13:13 38.93636 -77.46524 301 ft 98 kts 290°
2026-04-24 13:13 38.93944 -77.47570 302 ft 150 kts 290°
2026-04-24 13:13 38.94363 -77.48946 563 ft 170 kts 292°
2026-04-24 13:14 38.94806 -77.50403 1100 ft 180 kts 292°
2026-04-24 13:14 38.95133 -77.51956 1782 ft 181 kts 271°
2026-04-24 13:14 38.94702 -77.53501 2351 ft 196 kts 236°
2026-04-24 13:14 38.93655 -77.54753 2668 ft 213 kts 237°
2026-04-24 13:15 38.93108 -77.56491 2829 ft 217 kts 265°
2026-04-24 13:15 38.92736 -77.58446 3122 ft 231 kts 260°
2026-04-24 13:15 38.92258 -77.60453 3586 ft 237 kts 258°
2026-04-24 13:15 38.91736 -77.62555 3776 ft 256 kts 257°
2026-04-24 13:16 38.91174 -77.64761 4333 ft 262 kts 257°
2026-04-24 13:16 38.90606 -77.66964 5003 ft 265 kts 257°
2026-04-24 13:16 38.90020 -77.69227 5673 ft 267 kts 257°
2026-04-24 13:16 38.89382 -77.71440 6455 ft 267 kts 247°
2026-04-24 13:17 38.88325 -77.73466 6990 ft 278 kts 237°
2026-04-24 13:17 38.87146 -77.75460 7625 ft 280 kts 237°
2026-04-24 13:17 38.85976 -77.77456 8358 ft 279 kts 237°
2026-04-24 13:17 38.84812 -77.79465 9035 ft 281 kts 237°
2026-04-24 13:18 38.83648 -77.81495 9709 ft 283 kts 237°
2026-04-24 13:18 38.82480 -77.83543 10289 ft 287 kts 237°
2026-04-24 13:18 38.81280 -77.85656 10456 ft 307 kts 236°
2026-04-24 13:18 38.79981 -77.87942 10621 ft 326 kts 237°
2026-04-24 13:19 38.78928 -77.90582 10735 ft 340 kts 258°
2026-04-24 13:19 38.78810 -77.93638 10989 ft 350 kts 280°
2026-04-24 13:19 38.79454 -77.96675 11456 ft 355 kts 288°
2026-04-24 13:19 38.80216 -77.99687 12050 ft 357 kts 288°
2026-04-24 13:20 38.80995 -78.02721 12601 ft 360 kts 288°
2026-04-24 13:20 38.81772 -78.05791 13158 ft 364 kts 288°
2026-04-24 13:20 38.82544 -78.08892 13699 ft 367 kts 287°
2026-04-24 13:20 38.83317 -78.12037 14200 ft 370 kts 287°
2026-04-24 13:21 38.84086 -78.15188 14723 ft 372 kts 287°
2026-04-24 13:21 38.84861 -78.18372 15249 ft 374 kts 287°
2026-04-24 13:21 38.85468 -78.21625 15722 ft 378 kts 274°
2026-04-24 13:21 38.85440 -78.24960 16245 ft 379 kts 269°
2026-04-24 13:22 38.85366 -78.28351 16721 ft 382 kts 269°
2026-04-24 13:22 38.85305 -78.31777 17162 ft 385 kts 269°
2026-04-24 13:22 38.85254 -78.35230 17622 ft 388 kts 270°
2026-04-24 13:22 38.85208 -78.38701 18044 ft 391 kts 270°
2026-04-24 13:23 38.85165 -78.42203 18497 ft 392 kts 270°
2026-04-24 13:23 38.85122 -78.45703 18916 ft 394 kts 270°
2026-04-24 13:23 38.85079 -78.49227 19363 ft 395 kts 270°
2026-04-24 13:23 38.85035 -78.52761 19774 ft 397 kts 270°
2026-04-24 13:24 38.84990 -78.56308 20179 ft 399 kts 270°
2026-04-24 13:24 38.84944 -78.59876 20600 ft 400 kts 270°
2026-04-24 13:24 38.84896 -78.63453 21005 ft 402 kts 270°
2026-04-24 13:24 38.84847 -78.67056 21390 ft 404 kts 270°
2026-04-24 13:25 38.84796 -78.70667 21750 ft 406 kts 270°
2026-04-24 13:25 38.84744 -78.74301 22104 ft 409 kts 270°
2026-04-24 13:25 38.84692 -78.77905 22481 ft 410 kts 270°
2026-04-24 13:25 38.84637 -78.81571 22834 ft 412 kts 270°
2026-04-24 13:26 38.84581 -78.85250 23216 ft 413 kts 270°
2026-04-24 13:26 38.84523 -78.88945 23560 ft 415 kts 270°
2026-04-24 13:26 38.84464 -78.92671 23853 ft 417 kts 270°
2026-04-24 13:26 38.84404 -78.96390 24152 ft 419 kts 270°
2026-04-24 13:27 38.84363 -78.98868 24379 ft 420 kts 270°
2026-04-24 13:27 38.84300 -79.02634 24687 ft 421 kts 270°
2026-04-24 13:27 38.84236 -79.06398 24971 ft 423 kts 270°
2026-04-24 13:27 38.84171 -79.10185 25285 ft 425 kts 271°
2026-04-24 13:28 38.84104 -79.13990 25549 ft 428 kts 270°
2026-04-24 13:28 38.84035 -79.17811 25851 ft 429 kts 270°
2026-04-24 13:28 38.83965 -79.21638 26134 ft 430 kts 270°
2026-04-24 13:28 38.83895 -79.25483 26407 ft 432 kts 270°
2026-04-24 13:29 38.83823 -79.29343 26670 ft 434 kts 271°
2026-04-24 13:29 38.83751 -79.33216 26948 ft 434 kts 270°
2026-04-24 13:29 38.83678 -79.37046 27253 ft 434 kts 271°
2026-04-24 13:29 38.83602 -79.40915 27649 ft 433 kts 271°
2026-04-24 13:30 38.83526 -79.44761 28061 ft 430 kts 271°
2026-04-24 13:30 38.83450 -79.48597 28404 ft 430 kts 271°
2026-04-24 13:30 38.83371 -79.52437 28760 ft 430 kts 271°
2026-04-24 13:30 38.83291 -79.56267 29143 ft 428 kts 271°
2026-04-24 13:31 38.83211 -79.60077 29549 ft 427 kts 271°
2026-04-24 13:31 38.83130 -79.63894 29908 ft 427 kts 271°
2026-04-24 13:31 38.83048 -79.67655 30224 ft 426 kts 271°
2026-04-24 13:31 38.82965 -79.71450 30541 ft 426 kts 271°
2026-04-24 13:32 38.82880 -79.75249 30793 ft 426 kts 271°
2026-04-24 13:32 38.82794 -79.79048 31065 ft 426 kts 271°
2026-04-24 13:32 38.82707 -79.82851 31245 ft 428 kts 270°
2026-04-24 13:32 38.82616 -79.86676 31437 ft 429 kts 270°
2026-04-24 13:33 38.82526 -79.90499 31712 ft 428 kts 270°
2026-04-24 13:33 38.82436 -79.94314 31988 ft 428 kts 270°
2026-04-24 13:33 38.82250 -80.01968 32012 ft 430 kts 270°
2026-04-24 13:34 38.82059 -80.09615 31998 ft 427 kts 270°
2026-04-24 13:34 38.81859 -80.17224 31971 ft 426 kts 270°
2026-04-24 13:35 38.81651 -80.24804 31981 ft 425 kts 270°
2026-04-24 13:35 38.81439 -80.32380 31955 ft 426 kts 270°
2026-04-24 13:36 38.81221 -80.39996 31966 ft 428 kts 270°
2026-04-24 13:36 38.80998 -80.47648 31953 ft 431 kts 270°
2026-04-24 13:37 38.80770 -80.55295 31935 ft 433 kts 270°
2026-04-24 13:37 38.80534 -80.63023 31952 ft 434 kts 270°
2026-04-24 13:38 38.80292 -80.70797 31952 ft 436 kts 270°
2026-04-24 13:38 38.80045 -80.78576 31948 ft 437 kts 270°
2026-04-24 13:39 38.79793 -80.86324 31954 ft 437 kts 269°
2026-04-24 13:39 38.79534 -80.94112 31939 ft 437 kts 269°
2026-04-24 13:40 38.79271 -81.01887 31954 ft 436 kts 269°
2026-04-24 13:40 38.79004 -81.09654 31962 ft 436 kts 269°
2026-04-24 13:41 38.78730 -81.17425 31956 ft 436 kts 269°
2026-04-24 13:41 38.78453 -81.25187 31952 ft 435 kts 269°
2026-04-24 13:42 38.78170 -81.32924 31953 ft 434 kts 269°
2026-04-24 13:42 38.77883 -81.40641 31958 ft 433 kts 269°
2026-04-24 13:43 38.77595 -81.48293 31968 ft 433 kts 269°
2026-04-24 13:43 38.77298 -81.55996 31962 ft 433 kts 269°
2026-04-24 13:44 38.76997 -81.63700 31957 ft 433 kts 269°
2026-04-24 13:44 38.76690 -81.71424 31953 ft 434 kts 269°
2026-04-24 13:45 38.76379 -81.79139 31958 ft 434 kts 269°
2026-04-24 13:45 38.76060 -81.86887 31956 ft 435 kts 269°
2026-04-24 13:46 38.75739 -81.94601 31959 ft 436 kts 269°
2026-04-24 13:46 38.75411 -82.02358 31952 ft 437 kts 269°
2026-04-24 13:47 38.75107 -82.10140 31954 ft 437 kts 269°
2026-04-24 13:47 38.74821 -82.17924 31957 ft 437 kts 269°
2026-04-24 13:48 38.74532 -82.25658 31963 ft 437 kts 269°
2026-04-24 13:48 38.74230 -82.33487 31960 ft 437 kts 269°
2026-04-24 13:49 38.73924 -82.41253 31965 ft 437 kts 269°
2026-04-24 13:49 38.73615 -82.48962 31968 ft 436 kts 269°
2026-04-24 13:50 38.73298 -82.56724 31970 ft 435 kts 269°
2026-04-24 13:50 38.72978 -82.64454 31974 ft 435 kts 269°
2026-04-24 13:51 38.72652 -82.72191 31969 ft 434 kts 269°
2026-04-24 13:51 38.72322 -82.79919 31961 ft 434 kts 269°
2026-04-24 13:52 38.71986 -82.87631 31977 ft 434 kts 269°
2026-04-24 13:52 38.71647 -82.95333 31972 ft 433 kts 269°
2026-04-24 13:53 38.71302 -83.03038 31969 ft 433 kts 269°
2026-04-24 13:53 38.70952 -83.10743 31969 ft 433 kts 268°
2026-04-24 13:54 38.70601 -83.18374 31972 ft 432 kts 268°
2026-04-24 13:54 38.70242 -83.26055 31971 ft 432 kts 268°
2026-04-24 13:55 38.69878 -83.33731 31975 ft 431 kts 268°
2026-04-24 13:55 38.69510 -83.41400 31969 ft 431 kts 268°
2026-04-24 13:56 38.69137 -83.49054 31967 ft 430 kts 268°
2026-04-24 13:56 38.68760 -83.56701 31971 ft 430 kts 268°
2026-04-24 13:57 38.68378 -83.64338 31960 ft 429 kts 268°
2026-04-24 13:57 38.67991 -83.71969 31972 ft 429 kts 268°
2026-04-24 13:58 38.67603 -83.79537 31971 ft 429 kts 268°
2026-04-24 13:58 38.67206 -83.87171 31967 ft 429 kts 268°
2026-04-24 13:59 38.66805 -83.94797 31969 ft 430 kts 268°
2026-04-24 13:59 38.66398 -84.02431 31976 ft 430 kts 268°
2026-04-24 14:00 38.65986 -84.10074 31970 ft 431 kts 268°
2026-04-24 14:00 38.65568 -84.17731 31960 ft 431 kts 268°
2026-04-24 14:01 38.65147 -84.25361 31957 ft 432 kts 268°
2026-04-24 14:01 38.64718 -84.33041 31955 ft 432 kts 268°
2026-04-24 14:02 38.64287 -84.40723 31949 ft 432 kts 269°
2026-04-24 14:02 38.64572 -84.48360 31957 ft 429 kts 278°
2026-04-24 14:03 38.65230 -84.55896 31942 ft 429 kts 278°
2026-04-24 14:03 38.65864 -84.63498 31939 ft 429 kts 277°
2026-04-24 14:04 38.66460 -84.71082 31933 ft 428 kts 278°
2026-04-24 14:04 38.67041 -84.78671 31933 ft 428 kts 278°
2026-04-24 14:05 38.67614 -84.86243 31928 ft 427 kts 278°
2026-04-24 14:05 38.68184 -84.93812 31920 ft 427 kts 278°
2026-04-24 14:06 38.68749 -85.01375 31922 ft 427 kts 278°
2026-04-24 14:06 38.69306 -85.08892 31918 ft 426 kts 278°
2026-04-24 14:07 38.69861 -85.16456 31922 ft 426 kts 278°
2026-04-24 14:07 38.70315 -85.24041 31922 ft 427 kts 276°
2026-04-24 14:08 38.70684 -85.31627 31943 ft 427 kts 276°
2026-04-24 14:08 38.71055 -85.39233 31944 ft 428 kts 276°
2026-04-24 14:09 38.71433 -85.46840 31944 ft 428 kts 276°
2026-04-24 14:09 38.71809 -85.54403 31950 ft 428 kts 276°
2026-04-24 14:10 38.72184 -85.62014 31944 ft 428 kts 276°
2026-04-24 14:10 38.72554 -85.69633 31935 ft 428 kts 276°
2026-04-24 14:11 38.72918 -85.77249 31918 ft 428 kts 276°
2026-04-24 14:12 38.73456 -85.88676 31902 ft 428 kts 276°
2026-04-24 14:12 38.73808 -85.96290 31895 ft 428 kts 275°
2026-04-24 14:13 38.74152 -86.03858 31893 ft 428 kts 275°
2026-04-24 14:13 38.74495 -86.11483 31892 ft 429 kts 275°
2026-04-24 14:14 38.74832 -86.19106 31892 ft 429 kts 275°
2026-04-24 14:14 38.75274 -86.29253 31893 ft 428 kts 275°
2026-04-24 14:15 38.75600 -86.36867 31895 ft 428 kts 275°
2026-04-24 14:15 38.75920 -86.44475 31898 ft 427 kts 275°
2026-04-24 14:16 38.76238 -86.52067 31896 ft 427 kts 275°
2026-04-24 14:17 38.76706 -86.63409 31891 ft 426 kts 274°
2026-04-24 14:17 38.77164 -86.74771 31889 ft 425 kts 274°
2026-04-24 14:18 38.77462 -86.82331 31876 ft 424 kts 274°
2026-04-24 14:18 38.77756 -86.89884 31872 ft 424 kts 274°
2026-04-24 14:19 38.78043 -86.97385 31874 ft 423 kts 274°
2026-04-24 14:19 38.78325 -87.04914 31866 ft 423 kts 273°
2026-04-24 14:20 38.78603 -87.12443 31872 ft 423 kts 273°
2026-04-24 14:20 38.78876 -87.19973 31869 ft 423 kts 273°
2026-04-24 14:21 38.79144 -87.27504 31859 ft 423 kts 273°
2026-04-24 14:21 38.79408 -87.35046 31877 ft 423 kts 272°
2026-04-24 14:22 38.79667 -87.42576 31862 ft 423 kts 272°
2026-04-24 14:23 38.80043 -87.53827 31861 ft 422 kts 272°
2026-04-24 14:23 38.80290 -87.61365 31865 ft 422 kts 272°
2026-04-24 14:24 38.80530 -87.68866 31863 ft 421 kts 272°
2026-04-24 14:24 38.80650 -87.72613 32077 ft 421 kts 271°
2026-04-24 14:24 38.80769 -87.76363 32075 ft 421 kts 271°
2026-04-24 14:25 38.80998 -87.83870 32060 ft 422 kts 271°
2026-04-24 14:25 38.81223 -87.91359 32012 ft 424 kts 271°
2026-04-24 14:26 38.81446 -87.98920 31979 ft 425 kts 271°
2026-04-24 14:26 38.81665 -88.06514 31921 ft 426 kts 271°
2026-04-24 14:27 38.81880 -88.14121 31864 ft 428 kts 270°
2026-04-24 14:27 38.82090 -88.21763 31880 ft 429 kts 270°
2026-04-24 14:28 38.82296 -88.29419 31863 ft 430 kts 270°
2026-04-24 14:28 38.82496 -88.37043 31856 ft 430 kts 270°
2026-04-24 14:29 38.82692 -88.44710 31840 ft 430 kts 270°
2026-04-24 14:29 38.82884 -88.52390 31834 ft 430 kts 270°
2026-04-24 14:30 38.83039 -88.58754 31823 ft 429 kts 270°
2026-04-24 14:30 38.83251 -88.67698 31815 ft 428 kts 269°
2026-04-24 14:31 38.83426 -88.75321 31818 ft 427 kts 269°
2026-04-24 14:31 38.83595 -88.82874 31817 ft 426 kts 269°
2026-04-24 14:32 38.83760 -88.90456 31829 ft 425 kts 269°
2026-04-24 14:32 38.83920 -88.98034 31823 ft 425 kts 269°
2026-04-24 14:33 38.84074 -89.05612 31827 ft 424 kts 269°
2026-04-24 14:33 38.84223 -89.13180 31828 ft 425 kts 269°
2026-04-24 14:34 38.84369 -89.20750 31823 ft 424 kts 269°
2026-04-24 14:34 38.84510 -89.28312 31838 ft 424 kts 268°
2026-04-24 14:35 38.84645 -89.35815 31827 ft 423 kts 268°
2026-04-24 14:35 38.84777 -89.43352 31836 ft 421 kts 268°
2026-04-24 14:36 38.84902 -89.50859 31835 ft 420 kts 268°
2026-04-24 14:36 38.85023 -89.58353 31840 ft 420 kts 268°
2026-04-24 14:37 38.85138 -89.65788 31839 ft 419 kts 268°
2026-04-24 14:37 38.85249 -89.73257 31845 ft 418 kts 268°
2026-04-24 14:38 38.85355 -89.80717 31844 ft 418 kts 268°
2026-04-24 14:38 38.85456 -89.88180 31844 ft 418 kts 268°
2026-04-24 14:39 38.85553 -89.95647 31843 ft 419 kts 268°
2026-04-24 14:39 38.85645 -90.03114 31863 ft 419 kts 267°
2026-04-24 14:40 38.85732 -90.10580 31852 ft 419 kts 267°
2026-04-24 14:40 38.85814 -90.18003 31847 ft 418 kts 267°
2026-04-24 14:41 38.85892 -90.25441 31839 ft 417 kts 267°
2026-04-24 14:41 38.85965 -90.32875 31831 ft 416 kts 267°
2026-04-24 14:42 38.86033 -90.40288 31849 ft 415 kts 266°
2026-04-24 14:42 38.86077 -90.47681 31839 ft 413 kts 264°
2026-04-24 14:43 38.85293 -90.54898 31834 ft 407 kts 257°
2026-04-24 14:43 38.84336 -90.62009 31825 ft 406 kts 257°
2026-04-24 14:44 38.83390 -90.69160 31820 ft 406 kts 257°
2026-04-24 14:44 38.82454 -90.76299 31819 ft 406 kts 257°
2026-04-24 14:45 38.81518 -90.83435 31820 ft 406 kts 257°
2026-04-24 14:45 38.80578 -90.90567 31810 ft 405 kts 257°
2026-04-24 14:46 38.79634 -90.97694 31808 ft 405 kts 257°
2026-04-24 14:46 38.78688 -91.04807 31830 ft 405 kts 257°
2026-04-24 14:47 38.77898 -91.10716 31813 ft 405 kts 257°
2026-04-24 14:47 38.76786 -91.18991 31820 ft 405 kts 256°
2026-04-24 14:48 38.75826 -91.26101 31812 ft 405 kts 256°
2026-04-24 14:48 38.74860 -91.33224 31816 ft 405 kts 256°
2026-04-24 14:49 38.73891 -91.40333 31810 ft 405 kts 256°
2026-04-24 14:49 38.72916 -91.47451 31807 ft 405 kts 256°
2026-04-24 14:50 38.71938 -91.54560 31816 ft 405 kts 256°
2026-04-24 14:50 38.70960 -91.61636 31806 ft 406 kts 256°
2026-04-24 14:51 38.69973 -91.68754 31804 ft 407 kts 256°
2026-04-24 14:51 38.68975 -91.75893 31804 ft 407 kts 256°
2026-04-24 14:52 38.67953 -91.83038 31803 ft 408 kts 256°
2026-04-24 14:52 38.66922 -91.90186 31819 ft 408 kts 256°
2026-04-24 14:53 38.65889 -91.97338 31828 ft 409 kts 256°
2026-04-24 14:53 38.64861 -92.04434 31829 ft 408 kts 256°
2026-04-24 14:54 38.63825 -92.11559 31826 ft 406 kts 256°
2026-04-24 14:54 38.62795 -92.18656 31823 ft 404 kts 256°
2026-04-24 14:55 38.61948 -92.24528 31823 ft 404 kts 256°
2026-04-24 14:55 38.60754 -92.32769 31838 ft 403 kts 256°
2026-04-24 14:56 38.59728 -92.39814 31831 ft 403 kts 256°
2026-04-24 14:56 38.58697 -92.46865 31829 ft 404 kts 256°
2026-04-24 14:57 38.57660 -92.53925 31825 ft 404 kts 256°
2026-04-24 14:57 38.56623 -92.60946 31821 ft 405 kts 256°
2026-04-24 14:58 38.55575 -92.68016 31834 ft 405 kts 256°
2026-04-24 14:58 38.54519 -92.75111 31823 ft 406 kts 256°
2026-04-24 14:59 38.53460 -92.82197 31826 ft 406 kts 256°
2026-04-24 14:59 38.52395 -92.89286 31825 ft 406 kts 256°
2026-04-24 15:00 38.51328 -92.96364 31828 ft 406 kts 255°
2026-04-24 15:00 38.50257 -93.03433 31840 ft 405 kts 255°
2026-04-24 15:01 38.49181 -93.10507 31856 ft 405 kts 255°
2026-04-24 15:01 38.48109 -93.17522 31861 ft 405 kts 255°
2026-04-24 15:02 38.47027 -93.24575 31872 ft 404 kts 255°
2026-04-24 15:02 38.45943 -93.31612 31874 ft 404 kts 255°
2026-04-24 15:03 38.45041 -93.37446 31880 ft 403 kts 255°
2026-04-24 15:03 38.43768 -93.45646 31872 ft 403 kts 255°
2026-04-24 15:04 38.42859 -93.51475 31861 ft 403 kts 255°
2026-04-24 15:04 38.41585 -93.59611 31874 ft 402 kts 255°
2026-04-24 15:05 38.40484 -93.66614 31869 ft 403 kts 255°
2026-04-24 15:05 38.39564 -93.72442 31873 ft 403 kts 255°
2026-04-24 15:06 38.38455 -93.79447 31827 ft 403 kts 255°
2026-04-24 15:06 38.37342 -93.86444 31829 ft 403 kts 255°
2026-04-24 15:07 38.36225 -93.93445 31825 ft 403 kts 255°
2026-04-24 15:07 38.35104 -94.00444 31817 ft 402 kts 255°
2026-04-24 15:08 38.33978 -94.07424 31832 ft 402 kts 255°
2026-04-24 15:08 38.32846 -94.14395 31822 ft 401 kts 255°
2026-04-24 15:09 38.31713 -94.21341 31856 ft 401 kts 255°
2026-04-24 15:09 38.30586 -94.28238 31833 ft 400 kts 255°
2026-04-24 15:10 38.29449 -94.35168 31826 ft 399 kts 255°
2026-04-24 15:10 38.28312 -94.42076 31821 ft 398 kts 255°
2026-04-24 15:11 38.27171 -94.48973 31815 ft 397 kts 255°
2026-04-24 15:11 38.26081 -94.55865 31817 ft 397 kts 255°
2026-04-24 15:12 38.25015 -94.62759 31830 ft 397 kts 255°
2026-04-24 15:12 38.23403 -94.73081 31831 ft 396 kts 255°
2026-04-24 15:13 38.22326 -94.79915 31835 ft 396 kts 255°
2026-04-24 15:13 38.21240 -94.86774 31834 ft 396 kts 255°
2026-04-24 15:14 38.20149 -94.93643 31839 ft 396 kts 255°
2026-04-24 15:14 38.19055 -95.00503 31845 ft 396 kts 255°
2026-04-24 15:15 38.17958 -95.07359 31847 ft 395 kts 255°
2026-04-24 15:15 38.16855 -95.14217 31840 ft 395 kts 255°
2026-04-24 15:16 38.15751 -95.20999 31853 ft 394 kts 255°
2026-04-24 15:16 38.14638 -95.27809 31852 ft 393 kts 255°
2026-04-24 15:17 38.13522 -95.34618 31872 ft 393 kts 255°
2026-04-24 15:17 38.12403 -95.41422 31848 ft 393 kts 255°
2026-04-24 15:18 38.11282 -95.48209 31854 ft 392 kts 255°
2026-04-24 15:18 38.10158 -95.54997 31861 ft 392 kts 255°
2026-04-24 15:19 38.09037 -95.61735 31861 ft 392 kts 255°
2026-04-24 15:19 38.07906 -95.68509 31886 ft 392 kts 255°
2026-04-24 15:20 38.06772 -95.75280 31892 ft 392 kts 255°
2026-04-24 15:20 38.05635 -95.82041 31883 ft 392 kts 255°
2026-04-24 15:21 38.04495 -95.88795 31878 ft 391 kts 255°
2026-04-24 15:21 38.03353 -95.95534 31873 ft 390 kts 255°
2026-04-24 15:22 38.02213 -96.02236 31875 ft 391 kts 255°
2026-04-24 15:23 38.00479 -96.12387 31879 ft 394 kts 255°
2026-04-24 15:23 37.98732 -96.22559 31870 ft 394 kts 255°
2026-04-24 15:25 37.96006 -96.38320 31876 ft 391 kts 255°
2026-04-24 15:26 37.92878 -96.56244 31880 ft 389 kts 255°
2026-04-24 15:27 37.89361 -96.76206 31903 ft 387 kts 255°
2026-04-24 15:29 37.85815 -96.96117 31903 ft 387 kts 255°
2026-04-24 15:31 37.81645 -97.19298 31908 ft 385 kts 255°
2026-04-24 15:33 37.76846 -97.45642 31893 ft 385 kts 255°
2026-04-24 15:34 37.73799 -97.62128 31869 ft 385 kts 255°
2026-04-24 15:35 37.70644 -97.78579 31857 ft 385 kts 255°
2026-04-24 15:36 37.69381 -97.85142 31860 ft 385 kts 255°
2026-04-24 15:36 37.67490 -97.94939 31849 ft 384 kts 255°
2026-04-24 15:37 37.66221 -98.01491 31860 ft 384 kts 255°
2026-04-24 15:37 37.64949 -98.08038 31854 ft 384 kts 255°
2026-04-24 15:38 37.63671 -98.14588 31849 ft 384 kts 255°
2026-04-24 15:38 37.62393 -98.21124 31853 ft 384 kts 255°
2026-04-24 15:39 37.61111 -98.27660 31851 ft 383 kts 255°
2026-04-24 15:39 37.59828 -98.34184 31850 ft 383 kts 255°
2026-04-24 15:40 37.58541 -98.40699 31860 ft 383 kts 255°
2026-04-24 15:40 37.57245 -98.47212 31888 ft 382 kts 255°
2026-04-24 15:41 37.55954 -98.53678 31896 ft 382 kts 255°
2026-04-24 15:41 37.54654 -98.60168 31904 ft 382 kts 255°
2026-04-24 15:42 37.53353 -98.66651 31908 ft 381 kts 255°
2026-04-24 15:42 37.52050 -98.73126 31928 ft 381 kts 255°
2026-04-24 15:43 37.50744 -98.79594 31910 ft 381 kts 255°
2026-04-24 15:43 37.49432 -98.86070 31894 ft 381 kts 255°
2026-04-24 15:44 37.48129 -98.92488 31893 ft 381 kts 255°
2026-04-24 15:44 37.46853 -98.98748 31876 ft 381 kts 255°
2026-04-24 15:45 37.45534 -99.05202 31867 ft 381 kts 255°
2026-04-24 15:45 37.44217 -99.11632 31871 ft 381 kts 255°
2026-04-24 15:46 37.42889 -99.18089 31861 ft 381 kts 255°
2026-04-24 15:46 37.41559 -99.24539 31862 ft 380 kts 255°
2026-04-24 15:47 37.40227 -99.30979 31863 ft 380 kts 255°
2026-04-24 15:47 37.38902 -99.37371 31864 ft 380 kts 255°
2026-04-24 15:48 37.37566 -99.43790 31862 ft 380 kts 255°
2026-04-24 15:48 37.36225 -99.50217 31867 ft 380 kts 255°
2026-04-24 15:49 37.34882 -99.56636 31867 ft 379 kts 255°
2026-04-24 15:49 37.33537 -99.63044 31864 ft 379 kts 255°
2026-04-24 15:50 37.32198 -99.69406 31864 ft 379 kts 255°
2026-04-24 15:50 37.30848 -99.75801 31859 ft 378 kts 255°
2026-04-24 15:51 37.29723 -99.81119 31856 ft 378 kts 255°
2026-04-24 15:51 37.28366 -99.87512 31862 ft 379 kts 255°
2026-04-24 15:52 37.27003 -99.93915 31861 ft 380 kts 255°
2026-04-24 15:52 37.25637 -100.00316 31869 ft 380 kts 255°
2026-04-24 15:53 37.24261 -100.06742 31875 ft 381 kts 255°
2026-04-24 15:53 37.22884 -100.13154 31878 ft 381 kts 255°
2026-04-24 15:54 37.21514 -100.19521 31885 ft 381 kts 255°
2026-04-24 15:54 37.20128 -100.25939 31882 ft 381 kts 255°
2026-04-24 15:55 37.18741 -100.32344 31884 ft 380 kts 255°
2026-04-24 15:55 37.17352 -100.38742 31884 ft 379 kts 255°
2026-04-24 15:56 37.15963 -100.45120 31897 ft 379 kts 255°
2026-04-24 15:56 37.14581 -100.51446 31884 ft 378 kts 255°
2026-04-24 15:57 37.13190 -100.57799 31914 ft 378 kts 255°
2026-04-24 15:57 37.11798 -100.64140 31919 ft 377 kts 255°
2026-04-24 15:58 37.10402 -100.70479 31938 ft 377 kts 255°
2026-04-24 15:58 37.09003 -100.76817 31952 ft 377 kts 255°
2026-04-24 15:59 37.07603 -100.83140 31966 ft 377 kts 255°
2026-04-24 15:59 37.06201 -100.89461 31973 ft 377 kts 255°
2026-04-24 16:00 37.04794 -100.95779 31982 ft 376 kts 255°
2026-04-24 16:00 37.03738 -101.02146 31977 ft 376 kts 261°
2026-04-24 16:01 37.02897 -101.08612 31971 ft 376 kts 261°
2026-04-24 16:01 37.02050 -101.15081 31955 ft 377 kts 261°
2026-04-24 16:02 37.01181 -101.21548 31941 ft 377 kts 260°
2026-04-24 16:02 37.00301 -101.28012 31949 ft 377 kts 260°
2026-04-24 16:03 36.99414 -101.34476 31947 ft 377 kts 261°
2026-04-24 16:03 36.98520 -101.40953 31946 ft 377 kts 261°
2026-04-24 16:04 36.97625 -101.47418 31936 ft 377 kts 261°
2026-04-24 16:04 36.96730 -101.53850 31925 ft 377 kts 260°
2026-04-24 16:05 36.95376 -101.63541 31950 ft 377 kts 260°
2026-04-24 16:06 36.94013 -101.73228 31979 ft 377 kts 261°
2026-04-24 16:07 36.92650 -101.82863 32000 ft 376 kts 261°
2026-04-24 16:07 36.91275 -101.92517 31996 ft 376 kts 261°
2026-04-24 16:08 36.89893 -102.02168 31975 ft 376 kts 260°
2026-04-24 16:09 36.88504 -102.11803 31926 ft 376 kts 261°
2026-04-24 16:09 36.87574 -102.18231 31911 ft 376 kts 261°
2026-04-24 16:11 36.85239 -102.34245 31845 ft 376 kts 261°
2026-04-24 16:11 36.84295 -102.40673 31844 ft 376 kts 260°
2026-04-24 16:12 36.82875 -102.50299 31844 ft 376 kts 261°
2026-04-24 16:13 36.81445 -102.59937 31847 ft 376 kts 261°
2026-04-24 16:14 36.79524 -102.72795 31845 ft 376 kts 261°
2026-04-24 16:14 36.78081 -102.82390 31845 ft 376 kts 261°
2026-04-24 16:15 36.76624 -102.92024 31831 ft 377 kts 260°
2026-04-24 16:16 36.75158 -103.01667 31842 ft 379 kts 260°
2026-04-24 16:17 36.72804 -103.17903 31846 ft 382 kts 262°
2026-04-24 16:18 36.71092 -103.30961 31849 ft 383 kts 262°
2026-04-24 16:19 36.69778 -103.40771 31849 ft 382 kts 262°
2026-04-24 16:20 36.68455 -103.50562 31854 ft 381 kts 262°
2026-04-24 16:20 36.67127 -103.60323 31850 ft 380 kts 262°
2026-04-24 16:21 36.65797 -103.70034 31852 ft 379 kts 262°
2026-04-24 16:22 36.64913 -103.76459 31854 ft 378 kts 262°
2026-04-24 16:22 36.63573 -103.86142 31874 ft 378 kts 261°
2026-04-24 16:23 36.62675 -103.92601 31859 ft 378 kts 261°
2026-04-24 16:24 36.61323 -104.02277 31856 ft 378 kts 261°
2026-04-24 16:24 36.60415 -104.08741 31851 ft 379 kts 261°
2026-04-24 16:25 36.59511 -104.15152 31880 ft 378 kts 261°
2026-04-24 16:25 36.58596 -104.21608 31907 ft 379 kts 261°
2026-04-24 16:26 36.57218 -104.31291 31930 ft 378 kts 261°
2026-04-24 16:27 36.55842 -104.40900 31849 ft 377 kts 261°
2026-04-24 16:27 36.54919 -104.47314 31851 ft 376 kts 261°
2026-04-24 16:28 36.53999 -104.53683 31842 ft 375 kts 261°
2026-04-24 16:28 36.52613 -104.63233 31846 ft 373 kts 261°
2026-04-24 16:29 36.51687 -104.69581 31845 ft 373 kts 261°
2026-04-24 16:30 36.49825 -104.82283 31848 ft 374 kts 261°
2026-04-24 16:30 36.48805 -104.88622 31839 ft 375 kts 257°
2026-04-24 16:31 36.47345 -104.94852 31857 ft 376 kts 256°
2026-04-24 16:31 36.45861 -105.01068 31979 ft 377 kts 256°
2026-04-24 16:32 36.44372 -105.07331 32019 ft 378 kts 256°
2026-04-24 16:32 36.42887 -105.13616 32065 ft 380 kts 256°
2026-04-24 16:33 36.41391 -105.19913 32102 ft 380 kts 256°
2026-04-24 16:33 36.39890 -105.26228 32108 ft 381 kts 256°
2026-04-24 16:34 36.38397 -105.32500 32086 ft 381 kts 256°
2026-04-24 16:34 36.36892 -105.38805 32088 ft 383 kts 256°
2026-04-24 16:35 36.35371 -105.45162 32058 ft 384 kts 256°
2026-04-24 16:35 36.33857 -105.51474 32031 ft 385 kts 256°
2026-04-24 16:36 36.32314 -105.57890 31982 ft 386 kts 255°
2026-04-24 16:36 36.30776 -105.64264 31925 ft 386 kts 255°
2026-04-24 16:37 36.29231 -105.70655 31895 ft 386 kts 256°
2026-04-24 16:37 36.27700 -105.76976 31906 ft 385 kts 256°
2026-04-24 16:38 36.26151 -105.83344 31895 ft 385 kts 256°
2026-04-24 16:38 36.24606 -105.89685 31900 ft 384 kts 256°
2026-04-24 16:39 36.23060 -105.96010 31895 ft 383 kts 255°
2026-04-24 16:39 36.21515 -106.02318 31886 ft 383 kts 256°
2026-04-24 16:40 36.20227 -106.07568 31891 ft 382 kts 256°
2026-04-24 16:40 36.18678 -106.13864 31919 ft 382 kts 255°
2026-04-24 16:41 36.16874 -106.21176 31938 ft 382 kts 255°
2026-04-24 16:41 36.15317 -106.27466 31953 ft 382 kts 255°
2026-04-24 16:42 36.14004 -106.32732 31963 ft 382 kts 255°
2026-04-24 16:42 36.12445 -106.39019 31966 ft 382 kts 255°
2026-04-24 16:43 36.10891 -106.45269 31962 ft 383 kts 255°
2026-04-24 16:43 36.09318 -106.51572 31950 ft 384 kts 255°
2026-04-24 16:44 36.07735 -106.57894 31939 ft 385 kts 255°
2026-04-24 16:44 36.06145 -106.64227 31923 ft 386 kts 255°
2026-04-24 16:45 36.04551 -106.70560 31905 ft 385 kts 256°
2026-04-24 16:45 36.02960 -106.76868 31929 ft 384 kts 255°
2026-04-24 16:46 36.01380 -106.83106 31936 ft 383 kts 255°
2026-04-24 16:46 35.99793 -106.89372 31927 ft 382 kts 255°
2026-04-24 16:47 35.98204 -106.95627 31935 ft 382 kts 255°
2026-04-24 16:47 35.96610 -107.01883 31934 ft 381 kts 255°
2026-04-24 16:48 35.95015 -107.08130 31941 ft 381 kts 255°
2026-04-24 16:48 35.93421 -107.14355 31948 ft 380 kts 255°
2026-04-24 16:49 35.91833 -107.20545 31937 ft 380 kts 255°
2026-04-24 16:49 35.90233 -107.26762 31940 ft 380 kts 255°
2026-04-24 16:50 35.88631 -107.32974 31936 ft 380 kts 255°
2026-04-24 16:50 35.87027 -107.39181 31932 ft 380 kts 255°
2026-04-24 16:51 35.85417 -107.45393 31933 ft 380 kts 255°
2026-04-24 16:51 35.83809 -107.51587 31921 ft 380 kts 255°
2026-04-24 16:52 35.82194 -107.57790 31918 ft 380 kts 255°
2026-04-24 16:52 35.80575 -107.63994 31903 ft 380 kts 255°
2026-04-24 16:53 35.78953 -107.70193 31902 ft 380 kts 255°
2026-04-24 16:53 35.77328 -107.76393 31884 ft 380 kts 255°
2026-04-24 16:54 35.75710 -107.82546 31886 ft 380 kts 255°
2026-04-24 16:54 35.74076 -107.88748 31878 ft 379 kts 255°
2026-04-24 16:55 35.72446 -107.94924 31878 ft 379 kts 255°
2026-04-24 16:55 35.70824 -108.01051 31873 ft 379 kts 255°
2026-04-24 16:56 35.69191 -108.07206 31871 ft 378 kts 255°
2026-04-24 16:56 35.67557 -108.13353 31862 ft 378 kts 255°
2026-04-24 16:57 35.65922 -108.19487 31865 ft 377 kts 255°
2026-04-24 16:57 35.64283 -108.25621 31866 ft 377 kts 255°
2026-04-24 16:58 35.62639 -108.31762 31858 ft 378 kts 255°
2026-04-24 16:58 35.60993 -108.37895 31862 ft 378 kts 255°
2026-04-24 16:59 35.59345 -108.44023 31848 ft 377 kts 255°
2026-04-24 17:00 35.56871 -108.53195 31849 ft 377 kts 255°
2026-04-24 17:00 35.54400 -108.62325 31851 ft 377 kts 255°
2026-04-24 17:01 35.51913 -108.71482 31842 ft 377 kts 255°
2026-04-24 17:02 35.50254 -108.77577 32077 ft 376 kts 255°
2026-04-24 17:02 35.49424 -108.80622 32066 ft 376 kts 255°
2026-04-24 17:02 35.47766 -108.86694 32060 ft 374 kts 255°
2026-04-24 17:03 35.45857 -108.95926 32024 ft 372 kts 259°
2026-04-24 17:04 35.44650 -109.02088 31984 ft 371 kts 259°
2026-04-24 17:04 35.42832 -109.11263 31968 ft 371 kts 259°
2026-04-24 17:05 35.41606 -109.17398 31958 ft 371 kts 258°
2026-04-24 17:06 35.39755 -109.26620 31935 ft 371 kts 259°
2026-04-24 17:06 35.37894 -109.35852 31901 ft 372 kts 259°
2026-04-24 17:07 35.36647 -109.42018 31900 ft 373 kts 259°
2026-04-24 17:08 35.34145 -109.54327 31904 ft 374 kts 258°
2026-04-24 17:08 35.32885 -109.60503 31903 ft 374 kts 258°
2026-04-24 17:09 35.30357 -109.72838 31910 ft 373 kts 258°
2026-04-24 17:10 35.27820 -109.85155 31902 ft 373 kts 258°
2026-04-24 17:12 35.22728 -110.09661 31905 ft 372 kts 258°
2026-04-24 18:54 33.94230 -118.39904 92 ft 0 kts 263°